Tracking 31080 objects as of 20-Jul-2025
HD Live streaming from Space Station
objects crossing your sky now

STARLINK-1244

Track STARLINK-1244 now!
10-day predictions
STARLINK-1244 is classified as:


NORAD ID: 45196
Int'l Code: 2020-012U
Perigee: 349.6 km
Apogee: 360.6 km
Inclination: 53.0 °
Period: 91.5 minutes
Semi major axis: 6726 km
RCS: Unknown
Launch date: February 17, 2020
Source: United States (US)
Launch site: AIR FORCE EASTERN TEST RANGE (AFETR)
Your satellite tracking list
Your tracking list is empty




NASA's NSSDC Master Catalog

Two Line Element Set (TLE):
1 45196U 20012U   25200.91668981  .00281179  00000-0  18876-2 0  9997
2 45196  53.0483 351.7630 0008200 261.3633 314.7933 15.73821565  5962
Source of the keplerian elements: AFSPC